Preview of NWS' New Version of Forecast
This preview is not operational and should not be used for support decisions.
Latest weather observations around

Corsicana, Campbell Field-Corsicana Municipal Airport (KCRS)

Using English Units (Switch to International System of Units)
Date/ Time (CDT) Wind (mph) Vis. (mi) Weather Sky Cond. Temp (°F) Rel. Humidity Wind Chill (°F) Heat Index (°F) Pressure Precip. (in)
Air Dwpt 6 hour Altimeter (inHg) Sea level (inHg) 1 hr 3 hr 6 hr
Max Min
Apr 22 23:53 W 6 10 Clear CLR 53 47     80%     30.05 30.04      
Apr 22 22:53 WSW 6 10 Clear CLR 54 47     77%     30.06 30.06      
Apr 22 21:53 W 6 10 Clear CLR 55 47     74%     30.06 30.06      
Apr 22 20:53 NW 3 10 Clear CLR 58 47     67%     30.04 30.04      
Apr 22 19:53 WNW 6 10 Clear CLR 59 48     67%     30.03 30.02      
Apr 22 18:53 NW 14 10 Clear CLR 65 46     50%     30.03 30.02      
Apr 22 17:53 NNW 17 10 Clear CLR 68 46     45%     30.02 30.01      
Apr 22 16:53 WNW 16 10 Clear CLR 68 47     47%     30.02 30.01      
Apr 22 15:53 NW 16 10 Mostly Clear FEW046 68 48     49%     30.03 30.03      
Apr 22 14:53 NNW 17 10 Mostly Clear FEW044 66 47     50%     30.06 30.05      
Apr 22 13:53 NW 17 10 Clear CLR 66 48     52%     30.07 30.06      
Apr 22 12:53 WNW 20 10 Clear and Windy CLR 64 47     54%     30.09 30.09      
Apr 22 11:53 NW 16 10 Clear CLR 63 48     58%     30.1 30.09      
Apr 22 10:53 NW 20 10 Clear and Windy CLR 60 47     62%     30.1 30.09      
Apr 22 10:22 NW 15 10 Partly Cloudy SCT024 58 48     70%     30.1        
Apr 22 09:53 NNW 15 10 Mostly Cloudy BKN022 BKN026 57 48     72%     30.09 30.09      
Apr 22 08:53 NNW 14 10 Cloudy OVC026 55 49     80%     30.08 30.08      
Apr 22 08:24 NNW 13 10 Mostly Cloudy BKN026 55 48     77%     30.08        
Apr 22 07:53 NNW 10 10 Mostly Clear FEW022 53 48     83%     30.08 30.07      
Apr 22 07:51 NNW 8 10 Partly Cloudy SCT022 54 48     82%     30.08        
Apr 22 06:03 NNW 10 10 Mostly Cloudy BKN020 52 48     86%     30.06        
Apr 22 05:53 NNW 10 10 Partly Cloudy SCT020 52 48     86%     30.05 30.05      
Apr 22 05:44 NNW 10 10 Mostly Cloudy BKN021 52 48     86%     30.06        
Apr 22 05:32 NNW 13 10 Partly Cloudy SCT023 52 48     86%     30.05        
Apr 22 04:53 NNW 11 10 Cloudy OVC017 53 48     83%     30.05 30.04      
Apr 22 04:16 NNW 14 10 Cloudy OVC015 53 49     86%     30.05        
Apr 22 03:53 NNW 15 10 Cloudy OVC014 54 50     86%     30.04 30.03      
Apr 22 02:53 NNW 9 10 Cloudy OVC012 55 52     89%     30.03 30.02      
Apr 22 01:53 N 10 10 Cloudy BKN012 OVC024 55 53     93%     30.03 30.03      
Apr 22 01:02 NNW 16 10 Cloudy SCT006 BKN012 OVC019 55 53     93%     30.03        
Apr 22 00:53 NNW 15 9 Cloudy BKN006 OVC012 56 53     90%     30.04 30.03     0
Apr 22 00:50 NNW 15 8 Cloudy BKN006 OVC012 55 54     94%     30.04        
Apr 22 00:28 NW 13 5 Fog/Mist OVC003 57 56     96%     30.02        
Apr 22 00:15 NW 20 2 Fog/Mist OVC004 58 56     93%     30.02        
Apr 21 23:53 NW 20 4 Fog/Mist OVC004 61 59     93%     30 30      
Apr 21 23:31 NNW 13 4 Fog/Mist OVC004 62 60     93%     30        
Apr 21 23:11 NNW 11 9 Cloudy BKN006 BKN028 OVC035 62 60     93%     29.99        
Apr 21 22:57 NW 14 9 Mostly Cloudy FEW008 BKN028 BKN035 62 61     96%     29.98        
Apr 21 22:53 NW 11 8 Mostly Cloudy SCT028 BKN035 BKN100 62 61     96%     29.98 29.97      
Apr 21 22:29 N 5 6 Fog/Mist SCT011 SCT055 OVC100 63 62     97%     29.97        
Apr 21 22:13 NNE 5 6 Fog/Mist SCT003 OVC012 63 62     97%     29.97        
Apr 21 21:53 N 9 4 Fog/Mist BKN003 OVC008 64 63     96%     29.96 29.95 0 0  
Apr 21 21:48 N 9 4 Fog/Mist BKN003 BKN008 OVC031 64 63     94%     29.95   0    
Apr 21 21:39 NE 8 3 Light Rain and Fog/Mist SCT003 BKN007 OVC016 64 63     96%     29.94   0    
Apr 21 21:29 NE 5 2 Light Rain and Fog/Mist BKN007 BKN018 OVC029 64 63     96%     29.94   0    
Apr 21 21:24 NE 5 1 Thunderstorms and Heavy Rain and Fog/Mist BKN007 BKN016 OVC029 64 63     96%     29.94   0    
Apr 21 21:17 7 2.5 Thunderstorms and Rain and Fog/Mist SCT004 OVC009 64 63     96%     29.94   0    
Apr 21 21:11 NNE 5 5 Thunderstorms and Rain and Fog/Mist BKN003 OVC009 64 63     96%     29.94   0    
Apr 21 20:53 N 7 4 Fog/Mist OVC003 65 63     93%     29.93 29.93      
Apr 21 19:53 ESE 7 3 Fog/Mist BKN004 BKN009 OVC013 65 64     97%     29.9 29.89      
Apr 21 19:43 ENE 6 3 Fog/Mist SCT004 BKN010 OVC015 65 64     97%     29.9        
Apr 21 19:36 ENE 7 4 Fog/Mist SCT010 OVC014 65 64     97%     29.9        
Apr 21 18:20 SE 8 7 Cloudy BKN008 OVC020 66 64     93%     29.89        
Apr 21 18:13 SSE 9 7 Cloudy SCT008 BKN012 OVC021 66 64     93%     29.9        
Apr 21 17:53 SE 8 6 Fog/Mist BKN006 66 64     93%     29.9 29.9 0    
Apr 21 17:15 SE 7 5 Fog/Mist BKN005 66 64     93%     29.91   0    
Apr 21 17:07 SE 5 5 Fog/Mist SCT005 BKN012 BKN042 65 64     97%     29.92   0    
Apr 21 16:53 SE 7 4 Light Rain and Fog/Mist SCT005 SCT020 BKN041 66 64     93%     29.91 29.91 0    
Apr 21 16:49 ESE 9 2 Light Rain and Fog/Mist SCT005 BKN020 OVC065 64 64     100%     29.92   0    
Apr 21 16:40 ESE 9 1.75 Rain and Fog/Mist BKN005 BKN015 OVC023 64 62     93%     29.92   0    
Apr 21 15:49 Calm 3 Light Rain and Fog/Mist BKN006 BKN015 OVC035 63 63     100%     29.94   0    
Apr 21 15:21 Calm 2.5 Light Rain and Fog/Mist FEW004 OVC017 63 61     93%     29.95   0    
Apr 21 15:07 Calm 3 Light Rain and Fog/Mist BKN017 OVC032 63 61     93%     29.95   0    
Apr 21 14:53 ESE 5 1.5 Rain and Fog/Mist BKN019 BKN025 OVC032 62 61     96%     29.95 29.94 0    
Apr 21 14:42 ESE 3 1.5 Light Rain and Fog/Mist BKN019 OVC030 62 61     96%     29.95   0    
Apr 21 14:33 SE 3 1.5 Light Rain and Fog/Mist SCT018 OVC031 62 60     93%     29.96   0    
Apr 21 14:27 SE 5 2 Light Rain and Fog/Mist BKN018 BKN026 OVC035 62 60     93%     29.96   0    
Apr 21 14:07 SE 6 3 Light Rain and Fog/Mist BKN021 OVC030 62 60     93%     29.96   0    
Apr 21 13:53 ESE 5 2 Light Rain and Fog/Mist SCT018 BKN023 OVC046 62 60     93%     29.96 29.96      
Apr 21 13:50 ESE 3 2 Light Rain and Fog/Mist SCT018 BKN023 OVC048 63 61     94%     29.97        
Apr 21 13:26 SE 5 3 Light Rain and Fog/Mist FEW020 SCT037 OVC050 62 60     93%     29.97        
Apr 21 13:17 SE 5 2.5 Thunderstorms and Rain and Fog/Mist SCT019 BKN037 OVC055 61 60     97%     29.97        
Apr 21 12:47 WSW 3 2.5 Thunderstorms and Rain and Fog/Mist BKN019 OVC060 61 59     94%     30   0    
Apr 21 12:39 WSW 7 7 Light Rain BKN019 OVC060 62 59     90%     30.01   0    
Apr 21 12:20 SSE 13 10 Light Rain FEW020 BKN060 OVC085 62 58     86%     29.97   0    
Apr 21 12:03 SSE 14 5 Light Rain and Fog/Mist FEW060 OVC095 62 58     86%     29.98   0    
Apr 21 11:53 SSE 17 2.5 Thunderstorms and Heavy Rain FEW065 OVC095 62 57     84%     29.97 29.96 0    
Apr 21 11:38 SSE 20 7 Thunderstorms and Rain SCT065 BKN100 63 56     78%     29.98   0    
Apr 21 11:18 SSE 18 10 Mostly Cloudy SCT018 BKN090 64 56     75%     29.99        
Apr 21 10:53 SE 17 10 Cloudy OVC018 64 55     73%     30 29.99      
Apr 21 09:53 SE 20 10 Mostly Cloudy and Windy BKN018 BKN022 63 53     70%     30.01 30.01      
Apr 21 09:29 SE 17 10 Cloudy BKN021 BKN028 OVC060 60 50     69%     30.03        
Apr 21 08:53 SE 17 10 Mostly Cloudy BKN065 60 50     69%     30.05 30.04      
Apr 21 07:53 ESE 11 10 Cloudy OVC060 56 48     75%     30.05 30.04      
Apr 21 06:53 E 8 10 Cloudy SCT033 BKN043 OVC060 55 49     80%     30.05 30.05      
Apr 21 06:12 E 6 10 Cloudy SCT022 BKN043 OVC050 55 50     83%     30.06        
Apr 21 05:53 ENE 5 10 Cloudy OVC022 55 49     80%     30.07 30.06      
Apr 21 04:53 Calm 10 Cloudy OVC026 55 49     80%     30.08 30.07      
Apr 21 04:36 Calm 10 Cloudy BKN025 OVC049 56 49     77%     30.08        
Apr 21 03:53 ESE 6 10 Clear CLR 53 48     83%     30.07 30.06      
Apr 21 02:53 ESE 9 10 Clear CLR 54 48     80%     30.08 30.07      
Apr 21 01:53 SE 7 10 Mostly Cloudy BKN050 54 48     80%     30.09 30.09      
Apr 21 00:53 SE 5 10 Clear CLR 54 47     77%     30.11 30.11      
Apr 20 23:53 SE 11 10 Clear CLR 57 47     69%     30.1 30.09      
Apr 20 22:53 SE 13 10 Clear CLR 58 47     67%     30.1 30.1      
Apr 20 21:53 SE 10 10 Clear CLR 60 47     62%     30.12 30.11      
Apr 20 20:53 ESE 8 10 Clear CLR 60 47     62%     30.09 30.09      
Apr 20 19:53 SE 9 10 Clear CLR 63 45     52%     30.1 30.1      
Apr 20 18:53 SE 9 10 Clear CLR 67 45     45%     30.11 30.1      
Apr 20 17:53 SE 9 10 Clear CLR 68 43     40%     30.11 30.11      
Apr 20 16:53 SE 13 10 Clear CLR 68 43     40%     30.13 30.12      
Apr 20 15:53 ESE 11 10 Clear CLR 68 42     39%     30.15 30.14      
Apr 20 14:53 E 11 10 Clear CLR 66 43     43%     30.18 30.17      
Apr 20 13:53 SE 10 10 Clear CLR 65 42     43%     30.24 30.23      
Apr 20 12:53 E 9 10 Clear CLR 61 39     44%     30.28 30.28      
Apr 20 11:53 ESE 11 10 Clear CLR 61 39     44%     30.3 30.3      
Apr 20 10:53 ESE 11 10 Clear CLR 58 37     46%     30.31 30.31      
Apr 20 09:53 ESE 18 10 Clear CLR 55 36     48%     30.31 30.31      
Apr 20 08:53 E 15 10 Clear CLR 52 37     57%     30.32 30.32      
Apr 20 07:53 E 10 10 Clear CLR 50 39     66% 46   30.3 30.3      
Apr 20 06:53 E 10 10 Clear CLR 50 40     68% 46   30.29 30.28      
Apr 20 05:53 E 9 10 Clear CLR 50 42     74% 46   30.27 30.26      
Apr 20 04:53 E 9 10 Clear CLR 51 42     71%     30.27 30.26      
Apr 20 03:53 E 8 10 Clear CLR 51 43     74%     30.27 30.26      
Apr 20 02:53 E 6 10 Clear CLR 51 42     71%     30.26 30.25      
Apr 20 01:53 E 3 10 Clear CLR 52 42     69%     30.27 30.26      
Apr 20 00:53 ENE 5 10 Clear CLR 54 43     66%     30.27 30.26      
Apr 19 22:53 NE 6 10 Clear CLR 56 42     60%     30.28 30.27      
Notice The following observation data may not be complete
Jun 11 16:53     Clear            %     29.91        
Notice The following observation data may not be complete
Jun 11 03:53     Clear            %     29.93        
Notice The following observation data may not be complete
Jun 10 21:53     Clear            %     29.89        
Notice The following observation data may not be complete
Jun 09 16:53     Clear            %     29.9        
Jun 06 02:53 NNW 6 10 Clear CLR 73 71     94%   74 29.82 29.8